FW2907 Weather Reports


Display with metric or nautical units.
time (UTC)temp
F
wind
direction
speed
MPH
gust
MPH
rain 1hr
in
rain 24hr
in
rain mn
in
humidity
%
barometer
mb
20260906061412 77 106 5.0 12.0 0.00 0.00 0.00 85 979.6
20260906060906 77 73 5.0 12.0 0.00 0.00 0.00 85 979.8
20260906060400 77 67 4.0 12.0 0.00 0.00 0.00 86 979.7
20260906060336 77 90 3.0 8.0 0.00 0.00 0.00 86 979.6
20260906055347 77 92 3.0 8.0 0.00 0.00 0.00 86 979.8
20260906054841 77 100 3.0 9.0 0.00 0.00 0.00 86 979.9
20260906054336 77 76 3.0 9.0 0.00 0.00 0.00 86 979.7
20260906053830 77 91 3.0 8.0 0.00 0.00 0.00 87 979.8
20260906053323 76 92 5.0 10.0 0.00 0.00 0.00 87 979.8
20260906052815 76 106 6.0 11.0 0.00 0.00 0.00 87 979.8
20260906052308 75 35 4.0 12.0 0.00 0.00 0.00 89 979.7
20260906051802 74 91 1.0 12.0 0.00 0.00 0.00 91 979.7
20260906051257 74 57 0.0 0.0 0.00 0.00 0.00 91 978.9
20260906050751 74 57 0.0 0.0 0.00 0.00 0.00 91 978.8
20260906050246 75 57 0.0 0.0 0.00 0.00 0.00 90 978.7
20260906045741 75 57 0.0 0.0 0.00 0.00 0.00 90 978.8
20260906045232 75 57 0.0 0.0 0.00 0.00 0.00 90 978.9
20260906044727 75 57 0.0 0.0 0.00 0.00 0.00 90 978.9
20260906044606 75 57 0.0 0.0 0.00 0.00 0.00 90 979.3
20260906044555 75 57 0.0 0.0 0.00 0.00 0.00 90 979.1
20260906044401 75 57 0.0 0.0 0.00 0.00 0.00 90 978.9
20260906043410 75 57 0.0 0.0 0.00 0.00 0.00 90 979.2
20260906042158 75 57 0.0 0.0 0.00 0.00 0.00 89 979.2
20260906041653 75 57 0.0 0.0 0.00 0.00 0.00 89 979.3
20260906041144 75 57 0.0 0.0 0.00 0.00 0.00 89 979.3
20260906040639 75 57 0.0 0.0 0.00 0.00 0.00 89 979.4
20260906040133 75 57 0.0 0.0 0.00 0.00 0.00 89 979.5
20260906035627 75 57 0.0 0.0 0.00 0.00 0.00 88 979.5
20260906035121 75 57 0.0 0.0 0.00 0.00 0.00 88 979.5
20260906034615 75 57 0.0 0.0 0.00 0.00 0.00 88 979.5
20260906034109 75 57 0.0 0.0 0.00 0.00 0.00 88 979.6
20260906033603 76 57 0.0 0.0 0.00 0.00 0.00 88 979.5
20260906033506 76 57 0.0 0.0 0.00 0.00 0.00 87 979.4
20260906033254 76 57 0.0 0.0 0.00 0.00 0.00 87 979.4
20260906032517 76 57 0.0 0.0 0.00 0.00 0.00 87 979.2
20260906031538 76 57 0.0 0.0 0.00 0.00 0.00 87 979.2
20260906031033 76 57 0.0 0.0 0.00 0.00 0.00 87 979.3
20260906030527 76 57 0.0 0.0 0.00 0.00 0.00 87 979.2
20260906030021 76 57 0.0 0.0 0.00 0.00 0.00 86 979.2
20260906025514 76 57 0.0 0.0 0.00 0.00 0.00 86 979.1
20260906025009 76 57 0.0 0.0 0.00 0.00 0.00 86 979.1
20260906024508 76 57 0.0 0.0 0.00 0.00 0.00 86 979.1
20260906024006 77 57 0.0 0.0 0.00 0.00 0.00 86 979.0
20260906023508 77 57 0.0 0.0 0.00 0.00 0.00 85 978.9
20260906023009 77 57 0.0 0.0 0.00 0.00 0.00 85 978.8
20260906022933 77 57 0.0 0.0 0.00 0.00 0.00 85 978.9
20260906022436 76 57 0.0 0.0 0.00 0.00 0.00 85 978.7
20260906021508 76 57 0.0 0.0 0.00 0.00 0.00 85 978.7
20260906021008 77 57 0.0 0.0 0.00 0.00 0.00 85 978.7
20260906020508 77 57 0.0 0.0 0.00 0.00 0.00 85 978.6
20260906020008 76 57 0.0 0.0 0.00 0.00 0.00 85 978.5
20260906015500 76 57 0.0 0.0 0.00 0.00 0.00 85 978.4
20260906014959 77 57 0.0 0.0 0.00 0.00 0.00 85 978.4
20260906014501 77 57 0.0 0.0 0.00 0.00 0.00 84 978.3
20260906014000 77 57 0.0 0.0 0.00 0.00 0.00 84 978.3
20260906013909 77 57 0.0 0.0 0.00 0.00 0.00 84 978.5
20260906013657 77 57 0.0 0.0 0.00 0.00 0.00 84 978.4
20260906012500 77 57 0.0 0.0 0.00 0.00 0.00 84 978.5
20260906012001 78 48 0.0 0.0 0.00 0.00 0.00 83 978.5
20260906011500 78 69 0.0 0.0 0.00 0.00 0.00 83 978.4
20260906011434 78 63 0.0 0.0 0.00 0.00 0.00 82 978.4
20260906010901 78 76 0.0 0.0 0.00 0.00 0.00 82 978.2
20260906010654 78 76 0.0 0.0 0.00 0.00 0.00 82 978.2
20260906005458 79 345 0.0 0.0 0.00 0.00 0.00 81 978.1
20260906004957 79 345 0.0 0.0 0.00 0.00 0.00 80 978.1
20260906004457 79 345 0.0 1.0 0.00 0.00 0.00 80 978.1
20260906004426 79 345 0.0 1.0 0.00 0.00 0.00 80 978.1
20260906003456 79 36 0.0 0.0 0.00 0.00 0.00 79 978.1
20260906003434 80 5 0.0 0.0 0.00 0.00 0.00 79 978.0
20260906002457 80 147 0.0 0.0 0.00 0.00 0.00 78 977.9
20260906001956 80 147 0.0 0.0 0.00 0.00 0.00 78 978.0
20260906001454 81 147 0.0 0.0 0.00 0.00 0.00 77 977.9
20260906000957 81 147 0.0 0.0 0.00 0.00 0.00 76 978.0
20260906000455 81 148 0.0 0.0 0.00 0.00 0.00 75 978.0
20260905235952 82 148 0.0 0.0 0.00 0.00 0.00 75 977.8
20260905235451 82 148 0.0 0.0 0.00 0.00 0.00 74 977.9
20260905234948 82 148 0.0 0.0 0.00 0.00 0.00 74 978.2
20260905234713 82 148 0.0 0.0 0.00 0.00 0.00 73 978.2
20260905233945 82 179 0.0 1.0 0.00 0.00 0.00 72 978.2
20260905233450 82 180 0.0 1.0 0.00 0.00 0.00 71 978.4
20260905232945 82 240 2.0 15.0 0.00 0.00 0.00 71 978.7
20260905232442 83 128 4.0 15.0 0.00 0.00 0.00 69 978.7
20260905232420 84 65 5.0 20.0 0.00 0.00 0.00 65 978.6
20260905231912 85 59 0.0 6.0 0.00 0.00 0.00 61 978.0
20260905231648 85 13 3.0 20.0 0.00 0.00 0.00 59 978.6
20260905230926 85 84 1.0 8.0 0.00 0.00 0.00 61 977.9
20260905225937 85 79 2.0 10.0 0.00 0.00 0.00 61 977.9
20260905225428 85 80 4.0 21.0 0.00 0.00 0.00 61 977.9
20260905224922 85 102 7.0 21.0 0.00 0.00 0.00 62 978.0
20260905224415 86 65 8.0 18.0 0.00 0.00 0.00 57 978.0
20260905223909 88 53 9.0 18.0 0.00 0.00 0.00 55 977.9
20260905223404 91 5 5.0 21.0 0.00 0.00 0.00 54 977.9
20260905222857 94 5 1.0 21.0 0.00 0.00 0.00 49 977.9
20260905222351 96 22 0.0 0.0 0.00 0.00 0.00 51 977.6
20260905222324 96 22 0.0 0.0 0.00 0.00 0.00 51 977.6
20260905221810 95 22 0.0 0.0 0.00 0.00 0.00 50 977.6
20260905220833 95 22 0.0 0.0 0.00 0.00 0.00 51 977.5
20260905220809 94 22 0.0 0.0 0.00 0.00 0.00 52 977.5
20260905215821 94 22 0.0 0.0 0.00 0.00 0.00 51 977.4
20260905215315 94 22 0.0 0.0 0.00 0.00 0.00 54 977.5
20260905215251 94 22 0.0 0.0 0.00 0.00 0.00 53 977.6
20260905214305 94 22 0.0 0.0 0.00 0.00 0.00 54 977.6
20260905213756 94 22 0.0 0.0 0.00 0.00 0.00 53 977.7
20260905213251 95 22 0.0 0.0 0.00 0.00 0.00 52 977.7
20260905212746 95 30 0.0 0.0 0.00 0.00 0.00 49 977.7
20260905212239 96 51 0.0 0.0 0.00 0.00 0.00 50 977.7
20260905211737 96 24 0.0 0.0 0.00 0.00 0.00 50 977.7
20260905211705 96 52 0.0 0.0 0.00 0.00 0.00 49 977.8
20260905210725 96 0 0.0 0.0 0.00 0.00 0.00 48 977.7
20260905210219 96 68 0.0 0.0 0.00 0.00 0.00 45 977.6
20260905205713 96 79 0.0 0.0 0.00 0.00 0.00 45 977.7
20260905205207 96 90 0.0 0.0 0.00 0.00 0.00 46 977.7
20260905204703 96 96 0.0 0.0 0.00 0.00 0.00 46 977.7
20260905204154 96 125 0.0 0.0 0.00 0.00 0.00 48 977.7
20260905203649 96 48 0.0 0.0 0.00 0.00 0.00 47 977.8
20260905203618 96 51 0.0 0.0 0.00 0.00 0.00 46 978.0
20260905202639 96 333 0.0 0.0 0.00 0.00 0.00 50 978.0
20260905202132 96 64 0.0 0.0 0.00 0.00 0.00 47 978.1
20260905202056 96 57 0.0 0.0 0.00 0.00 0.00 48 978.2
20260905201119 96 94 0.0 0.0 0.00 0.00 0.00 49 978.3
20260905200614 96 321 0.0 0.0 0.00 0.00 0.00 49 978.3
20260905200107 96 344 0.0 0.0 0.00 0.00 0.00 51 978.4
20260905195600 96 19 0.0 0.0 0.00 0.00 0.00 51 978.6
20260905195055 95 65 0.0 0.0 0.00 0.00 0.00 50 978.6
20260905194550 95 42 0.0 0.0 0.00 0.00 0.00 53 978.8
20260905194516 95 315 0.0 0.0 0.00 0.00 0.00 53 978.8
20260905193537 96 349 0.0 0.0 0.00 0.00 0.00 52 978.8
20260905193031 96 0 0.0 0.0 0.00 0.00 0.00 49 978.9
20260905192526 96 93 0.0 0.0 0.00 0.00 0.00 49 978.8
20260905192021 96 26 0.0 0.0 0.00 0.00 0.00 50 978.8
20260905191946 96 313 0.0 0.0 0.00 0.00 0.00 49 978.8
20260905191438 96 355 0.0 0.0 0.00 0.00 0.00 49 979.0
20260905190501 96 355 0.0 0.0 0.00 0.00 0.00 47 979.2
20260905190428 97 18 0.0 0.0 0.00 0.00 0.00 50 979.3
20260905185451 96 182 0.0 0.0 0.00 0.00 0.00 49 979.3
20260905184954 96 171 0.0 0.0 0.00 0.00 0.00 49 979.5
20260905184448 96 117 0.0 0.0 0.00 0.00 0.00 51 979.5
20260905183946 95 111 0.0 0.0 0.00 0.00 0.00 50 979.6
20260905183448 95 92 0.0 0.0 0.00 0.00 0.00 51 979.7
20260905182943 95 26 0.0 0.0 0.00 0.00 0.00 54 979.7
20260905182443 95 32 0.0 0.0 0.00 0.00 0.00 52 979.7
20260905181941 95 90 0.0 0.0 0.00 0.00 0.00 52 979.9
20260905181445 94 323 0.0 0.0 0.00 0.00 0.00 53 979.9
20260905180941 94 340 0.0 0.0 0.00 0.00 0.00 52 980.0
20260905180444 94 18 0.0 0.0 0.00 0.00 0.00 56 980.1
20260905175938 94 32 0.0 0.0 0.00 0.00 0.00 53 980.1
20260905175437 94 0 0.0 0.0 0.00 0.00 0.00 52 980.1
20260905174937 94 57 0.0 0.0 0.00 0.00 0.00 54 980.1
20260905174436 94 29 0.0 0.0 0.00 0.00 0.00 54 980.1
20260905173938 94 123 0.0 0.0 0.00 0.00 0.00 55 980.1
20260905173435 94 59 0.0 0.0 0.00 0.00 0.00 55 980.1
20260905173411 94 74 0.0 0.0 0.00 0.00 0.00 55 980.1
20260905172904 94 59 0.0 0.0 0.00 0.00 0.00 53 980.2
20260905172407 94 24 0.0 0.0 0.00 0.00 0.00 54 980.3
20260905171429 94 71 0.0 0.0 0.00 0.00 0.00 56 980.3
20260905170929 94 339 0.0 0.0 0.00 0.00 0.00 57 980.4
20260905170430 94 317 0.0 0.0 0.00 0.00 0.00 55 980.3
20260905165930 95 5 0.0 0.0 0.00 0.00 0.00 53 980.5
20260905165902 95 267 0.0 0.0 0.00 0.00 0.00 58 980.5
20260905164928 94 286 0.0 0.0 0.00 0.00 0.00 55 980.6
20260905164429 94 255 0.0 0.0 0.00 0.00 0.00 59 980.6
20260905163929 94 254 0.0 0.0 0.00 0.00 0.00 60 980.8
20260905163904 93 266 0.0 0.0 0.00 0.00 0.00 60 980.9
20260905162925 93 35 0.0 0.0 0.00 0.00 0.00 62 980.9
20260905162427 93 332 0.0 0.0 0.00 0.00 0.00 63 981.0
20260905162337 92 5 0.0 0.0 0.00 0.00 0.00 65 981.2
20260905162125 92 5 0.0 0.0 0.00 0.00 0.00 64 981.1
20260905160925 91 5 0.0 0.0 0.00 0.00 0.00 62 981.3
20260905160425 91 335 0.0 0.0 0.00 0.00 0.00 64 981.3
20260905160353 91 17 0.0 0.0 0.00 0.00 0.00 64 981.3
20260905155426 90 18 0.0 0.0 0.00 0.00 0.00 65 981.3
20260905154926 90 18 0.0 0.0 0.00 0.00 0.00 66 981.3
20260905154425 90 0 0.0 0.0 0.00 0.00 0.00 65 981.2
20260905153925 90 9 0.0 0.0 0.00 0.00 0.00 65 981.3
20260905153426 89 347 0.0 0.0 0.00 0.00 0.00 65 981.3
20260905153331 90 327 0.0 0.0 0.00 0.00 0.00 69 981.2
20260905153125 89 350 0.0 0.0 0.00 0.00 0.00 66 981.3
20260905151926 89 11 0.0 0.0 0.00 0.00 0.00 68 981.4
20260905151426 89 11 0.0 0.0 0.00 0.00 0.00 71 981.3
20260905150925 89 11 0.0 0.0 0.00 0.00 0.00 71 981.3
20260905150902 88 11 0.0 0.0 0.00 0.00 0.00 69 981.3
20260905145920 88 11 0.0 0.0 0.00 0.00 0.00 67 981.3
20260905145414 88 11 0.0 0.0 0.00 0.00 0.00 70 981.3
20260905144908 87 9 0.0 0.0 0.00 0.00 0.00 73 981.4
20260905144358 87 9 0.0 0.0 0.00 0.00 0.00 71 981.5
20260905144332 87 10 0.0 0.0 0.00 0.00 0.00 76 981.5
20260905143347 87 355 0.0 0.0 0.00 0.00 0.00 75 981.5
20260905142843 87 355 0.0 0.0 0.00 0.00 0.00 75 981.5
20260905142334 88 84 0.0 0.0 0.00 0.00 0.00 73 981.6
20260905141827 87 84 0.0 0.0 0.00 0.00 0.00 72 981.7
20260905141323 88 84 0.0 0.0 0.00 0.00 0.00 71 981.7
20260905140817 88 84 0.0 0.0 0.00 0.00 0.00 73 981.8
20260905140310 87 84 0.0 0.0 0.00 0.00 0.00 75 981.9
20260905135803 86 84 0.0 0.0 0.00 0.00 0.00 76 981.8
20260905135258 86 84 0.0 0.0 0.00 0.00 0.00 76 981.7
20260905134752 86 79 0.0 0.0 0.00 0.00 0.00 75 981.7
20260905134246 85 79 0.0 0.0 0.00 0.00 0.00 77 981.7
20260905134221 85 78 0.0 0.0 0.00 0.00 0.00 77 981.7
20260905133612 82 62 0.0 0.0 0.00 0.00 0.00 83 981.9
20260905133602 84 78 0.0 0.0 0.00 0.00 0.00 78 981.8
20260905133407 85 78 0.0 0.0 0.00 0.00 0.00 78 981.8
20260905132416 84 67 0.0 0.0 0.00 0.00 0.00 81 981.8
20260905131919 83 65 0.0 0.0 0.00 0.00 0.00 82 981.9
20260905130704 82 62 0.0 0.0 0.00 0.00 0.00 84 981.9
20260905130158 80 62 0.0 0.0 0.00 0.00 0.00 86 981.9
20260905125652 80 62 0.0 0.0 0.00 0.00 0.00 88 981.8
20260905125627 78 62 0.0 0.0 0.00 0.00 0.00 90 981.7
20260905124639 78 62 0.0 0.0 0.00 0.00 0.00 92 981.6
20260905124552 76 62 0.0 0.0 0.00 0.00 0.00 95 981.7
20260905124333 77 62 0.0 0.0 0.00 0.00 0.00 93 981.7
20260905123351 75 62 0.0 0.0 0.00 0.00 0.00 96 981.7
20260905122616 74 62 0.0 0.0 0.00 0.00 0.00 96 981.6
20260905122110 74 62 0.0 0.0 0.00 0.00 0.00 96 981.5
20260905122035 73 62 0.0 0.0 0.00 0.00 0.00 96 981.5
20260905121057 73 62 0.0 0.0 0.00 0.00 0.00 95 981.5
20260905120554 73 62 0.0 0.0 0.00 0.00 0.00 95 981.4
20260905120501 72 62 0.0 0.0 0.00 0.00 0.00 96 981.4
20260905120242 73 62 0.0 0.0 0.00 0.00 0.00 96 981.4
20260905115033 72 62 0.0 0.0 0.00 0.00 0.00 95 981.4
20260905114528 72 62 0.0 0.0 0.00 0.00 0.00 95 981.3
20260905114503 72 62 0.0 0.0 0.00 0.00 0.00 95 981.3
20260905113516 72 62 0.0 0.0 0.00 0.00 0.00 95 981.2
20260905113009 72 62 0.0 0.0 0.00 0.00 0.00 95 981.2
20260905112504 72 62 0.0 0.0 0.00 0.00 0.00 95 981.0
20260905111958 72 62 0.0 0.0 0.00 0.00 0.00 95 981.0
20260905111931 72 62 0.0 0.0 0.00 0.00 0.00 95 981.0
20260905110946 73 62 0.0 0.0 0.00 0.00 0.00 95 980.8
20260905110440 73 62 0.0 0.0 0.00 0.00 0.00 95 980.8
20260905110414 72 62 0.0 0.0 0.00 0.00 0.00 95 980.8
20260905105907 73 62 0.0 0.0 0.00 0.00 0.00 95 980.8
20260905104922 73 62 0.0 0.0 0.00 0.00 0.00 95 980.8
20260905104415 73 62 0.0 0.0 0.00 0.00 0.00 95 980.8
20260905103910 73 62 0.0 0.0 0.00 0.00 0.00 95 980.7
20260905103405 73 62 0.0 0.0 0.00 0.00 0.00 95 980.6
20260905102857 73 62 0.0 0.0 0.00 0.00 0.00 95 980.6
20260905102352 72 62 0.0 0.0 0.00 0.00 0.00 95 980.6
20260905101847 73 62 0.0 0.0 0.00 0.00 0.00 95 980.5
20260905101744 73 62 0.0 0.0 0.00 0.00 0.00 95 980.5
20260905101733 73 62 0.0 0.0 0.00 0.00 0.00 95 980.4
20260905101527 73 62 0.0 0.0 0.00 0.00 0.00 95 980.4
20260905095822 73 62 0.0 0.0 0.00 0.00 0.00 95 980.5
20260905095317 73 62 0.0 0.0 0.00 0.00 0.00 95 980.6
20260905094812 73 62 0.0 0.0 0.00 0.00 0.00 95 980.6
20260905094304 73 62 0.0 0.0 0.00 0.00 0.00 95 980.5
20260905094239 73 62 0.0 0.0 0.00 0.00 0.00 94 980.4
20260905093252 73 62 0.0 0.0 0.00 0.00 0.00 94 980.3
20260905092746 73 62 0.0 0.0 0.00 0.00 0.00 95 980.3
20260905092712 73 62 0.0 0.0 0.00 0.00 0.00 95 980.2
20260905091734 73 62 0.0 0.0 0.00 0.00 0.00 94 980.3
20260905091710 73 62 0.0 0.0 0.00 0.00 0.00 94 980.2
20260905091203 73 62 0.0 0.0 0.00 0.00 0.00 94 980.2
20260905090648 73 62 0.0 0.0 0.00 0.00 0.00 94 980.3
20260905085718 73 62 0.0 0.0 0.00 0.00 0.00 94 980.2
20260905085216 73 62 0.0 0.0 0.00 0.00 0.00 94 980.2
20260905084717 73 62 0.0 0.0 0.00 0.00 0.00 95 980.2
20260905084214 73 62 0.0 0.0 0.00 0.00 0.00 95 980.2
20260905083717 73 62 0.0 0.0 0.00 0.00 0.00 95 980.2
20260905083211 73 62 0.0 0.0 0.00 0.00 0.00 94 980.3
20260905082709 73 62 0.0 0.0 0.00 0.00 0.00 95 980.2
20260905082211 73 62 0.0 0.0 0.00 0.00 0.00 95 980.3
20260905081703 73 62 0.0 0.0 0.00 0.00 0.00 94 980.3
20260905081202 73 62 0.0 0.0 0.00 0.00 0.00 94 980.3
20260905080705 73 62 0.0 0.0 0.00 0.00 0.00 94 980.2
20260905080159 73 62 0.0 0.0 0.00 0.00 0.00 94 980.1
20260905075656 73 62 0.0 0.0 0.00 0.00 0.00 94 980.1
20260905075159 73 62 0.0 0.0 0.00 0.00 0.00 94 980.0
20260905075138 74 62 0.0 0.0 0.00 0.00 0.00 94 980.0
20260905074157 74 62 0.0 0.0 0.00 0.00 0.00 94 980.1
20260905073658 74 62 0.0 0.0 0.00 0.00 0.00 94 980.1
20260905073157 74 62 0.0 0.0 0.00 0.00 0.00 94 980.2
20260905073122 74 62 0.0 0.0 0.00 0.00 0.00 94 980.2
20260905072156 74 62 0.0 0.0 0.00 0.00 0.00 94 980.1
20260905072123 74 62 0.0 0.0 0.00 0.00 0.00 93 980.0
20260905071156 74 62 0.0 0.0 0.00 0.00 0.00 93 980.0
20260905070657 74 62 0.0 0.0 0.00 0.00 0.00 93 980.0
20260905070622 74 62 0.0 0.0 0.00 0.00 0.00 93 980.0
20260905065656 74 62 0.0 0.0 0.00 0.00 0.00 94 980.1
20260905065623 74 62 0.0 0.0 0.00 0.00 0.00 93 980.2
20260905064658 74 62 0.0 0.0 0.00 0.00 0.00 93 980.3
20260905064156 74 62 0.0 0.0 0.00 0.00 0.00 93 980.5
20260905064135 74 62 0.0 0.0 0.00 0.00 0.00 93 980.6
20260905063621 74 62 0.0 0.0 0.00 0.00 0.00 93 980.6
20260905062649 74 62 0.0 0.0 0.00 0.00 0.00 93 980.6
20260905062149 74 62 0.0 0.0 0.00 0.00 0.00 93 980.6
20260905061649 75 62 0.0 0.0 0.00 0.00 0.00 92 980.5